Flag for Netherlands Weather past 2 weeks in The Bottom (Saba), Saba, Netherlands

Now
N/A


Feels Like: N/A
Forecast: 77 / 85 °F
Wind: 15 mph from East

Location: Roosevelt Airport / Saint Eustatius

Current Time: Apr 18, 2015 at 1:05:45 PM

Latest Report: Apr 18, 2015 at 12:00 PM


Visibility: N/A

Pressure: N/A

Humidity: N/A

Dew point: N/A

Location of The Bottom (Saba)Location

Historic Weather in The Bottom (Saba) — Graph

°F

The Bottom (Saba) temperature yesterday

Maximum temperature yesterday: 82 °F (at 3:00 PM)
Minimum temperature yesterday: 72 °F (at 6:00 AM)
Average temperature yesterday: 78 °F

Past Weeks' High & Low Weather Summary

 TemperatureHumidityPressure
High86 °F (Apr 6, 2:00 PM)100% (Apr 16, 8:00 PM)30.15 "Hg (Apr 16, 8:00 PM)
Low32 °F (Apr 5, 5:00 AM)48% (Apr 3, 11:00 AM)29.89 "Hg (Apr 5, 1:00 PM)
Average79 °F75%30.05 "Hg
* Reported Apr 3 11:00 AM — Apr 18 11:00 AM, The Bottom (Saba), Weather by CustomWeather, © 2015

Note: Actual official high and low records may vary slightly from our data, if they occured in-between our weather recording intervals... More about our weather records

Advertising

The Bottom (Saba) weather history for previous 24 hours

 ConditionsComfort  
Time TempWeatherWind HumidityBarometerVisibility
11:00 AM
Sat, Apr 18
84 °FWarm.15 mph66%30.09 "HgN/A
10:00 AM81 °FWarm.13 mph79%30.09 "HgN/A
9:00 AM81 °FWarm.14 mph79%30.07 "HgN/A
8:00 AM81 °FWarm.13 mph74%30.07 "HgN/A
7:00 AMN/A9 mphN/AN/AN/A
6:00 AM77 °FWarm.9 mph83%30.04 "HgN/A
5:00 AMN/A9 mphN/AN/AN/A
4:00 AM77 °FWarm.8 mph79%30.04 "HgN/A
3:00 AM77 °FWarm.9 mph79%30.01 "HgN/A
2:00 AM77 °FWarm.12 mph79%30.04 "HgN/A
1:00 AM77 °FWarm.9 mph79%30.04 "HgN/A
12:00 AM77 °FWarm.12 mph79%30.07 "HgN/A
11:00 PM
Fri, Apr 17
77 °FWarm.13 mph79%30.07 "HgN/A
10:00 PMN/A13 mphN/AN/AN/A
9:00 PM77 °FWarm.13 mph83%30.07 "HgN/A
8:00 PM79 °FWarm.13 mph79%30.04 "HgN/A
7:00 PM79 °FWarm.13 mph79%30.04 "HgN/A
6:00 PMN/A13 mphN/AN/AN/A
5:00 PM81 °FWarm.13 mph74%30.01 "HgN/A
4:00 PMN/A14 mphN/AN/AN/A
3:00 PM82 °FWarm.15 mph70%30.01 "HgN/A
2:00 PM81 °FWarm.12 mph79%30.04 "HgN/A
1:00 PM81 °FWarm.15 mph74%30.07 "HgN/A
Weather by CustomWeather, © 2015

See weather overviewHow to use our weather pages